Home   Weather   Lappeenranta   Past weeks

Flag for Finland Past Weather in Lappeenranta, Finland — Yesterday and Last 2 Weeks

Now
27 °F

Sunny.


Feels Like: 18 °F
Forecast: 22 / 29 °F
Wind: 8 mph from Southwest

Location: Lappeenranta

Current Time: Jan 20, 2017 at 4:18:03 pm

Latest Report: Jan 20, 2017 at 3:20 pm


Visibility: 10 mi

Pressure: 29.86 "Hg

Humidity: 80%

Dew Point: 21 °F

Location of LappeenrantaLocation

Past Weather in Lappeenranta — Graph

°F

Lappeenranta Temperature Yesterday

Maximum temperature yesterday: 37 °F (at 8:20 pm)
Minimum temperature yesterday: 32 °F (at 12:20 am)
Average temperature yesterday: 34 °F

High & Low Weather Summary for the Past Weeks

 TemperatureHumidityPressure
High37 °F (Jan 19, 8:20 pm)100% (Jan 7, 6:50 pm)30.63 "Hg (Jan 7, 6:50 pm)
Low-11 °F (Jan 6, 5:20 pm)47% (Jan 20, 1:50 am)29.12 "Hg (Jan 13, 9:20 am)
Average23 °F91%29.89 "Hg
* Reported Jan 5 3:20 pm — Jan 20 3:20 pm, Lappeenranta, Weather by CustomWeather, © 2017

Note: Actual official high and low records may vary slightly from our data, if they occured in-between our weather recording intervals... More about our weather records

Advertising

Lappeenranta Weather History for the Previous 24 Hours

Scroll right to see more
 ConditionsComfort  
Time TempWeatherWind HumidityBarometerVisibility
3:20 pm
Fri, Jan 20
27 °FSunny.8 mph80%29.86 "Hg10 mi
2:50 pm27 °FSunny.9 mph80%29.89 "Hg10 mi
2:20 pm27 °FSunny.12 mph80%29.89 "Hg10 mi
1:50 pm28 °FSunny.12 mph74%29.89 "Hg10 mi
1:20 pm27 °FSunny.13 mph74%29.92 "Hg10 mi
12:50 pm27 °FSunny.10 mph74%29.92 "Hg10 mi
12:20 pm27 °FSunny.9 mph74%29.92 "Hg10 mi
11:50 am25 °FSunny.10 mph74%29.95 "Hg10 mi
11:20 am25 °FSunny.9 mph74%29.95 "Hg10 mi
10:50 am25 °FSunny.10 mph74%29.95 "Hg10 mi
10:20 am25 °FSunny.10 mph69%29.95 "Hg10 mi
9:50 am23 °FSunny.8 mph74%29.98 "Hg10 mi
9:20 am23 °FSunny.12 mph74%29.95 "Hg10 mi
8:50 am23 °FClear.12 mph68%29.95 "Hg10 mi
8:20 am21 °FClear.9 mph68%29.95 "Hg10 mi
7:50 am23 °FClear.8 mph68%29.95 "Hg10 mi
7:20 am23 °FClear.9 mph63%29.95 "Hg10 mi
6:50 am23 °FClear.8 mph63%29.95 "Hg10 mi
6:20 am25 °FClear.6 mph59%29.95 "Hg10 mi
5:50 am27 °FPassing clouds.6 mph54%29.95 "HgN/A
5:20 am27 °FPassing clouds.5 mph54%29.95 "HgN/A
4:50 am28 °FPassing clouds.10 mph51%29.92 "HgN/A
4:20 am28 °FPassing clouds.10 mph55%29.92 "HgN/A
3:50 am28 °FPassing clouds.9 mph55%29.92 "HgN/A
3:20 am30 °FPassing clouds.9 mph47%29.92 "HgN/A
2:50 am30 °FPassing clouds.13 mph47%29.89 "HgN/A
2:20 am30 °FPassing clouds.13 mph51%29.89 "HgN/A
1:50 am32 °FPassing clouds.14 mph47%29.86 "HgN/A
1:20 am32 °FPassing clouds.10 mph51%29.86 "HgN/A
12:50 am32 °FPassing clouds.13 mph51%29.83 "HgN/A
12:20 am34 °FPassing clouds.13 mph48%29.83 "HgN/A
11:50 pm
Thu, Jan 19
34 °FPassing clouds.18 mph48%29.80 "HgN/A
11:20 pm36 °FPassing clouds.20 mph52%29.77 "HgN/A
10:50 pm36 °FPassing clouds.12 mph70%29.77 "HgN/A
10:20 pm36 °FPassing clouds.16 mph75%29.74 "HgN/A
9:50 pm37 °FPassing clouds.16 mph70%29.74 "HgN/A
9:20 pm37 °FPassing clouds.15 mph70%29.74 "HgN/A
8:50 pm37 °FPassing clouds.16 mph70%29.71 "HgN/A
8:20 pm37 °FClear.15 mph75%29.71 "Hg10 mi
7:50 pm36 °FPassing clouds.14 mph81%29.68 "HgN/A
7:20 pm36 °FPassing clouds.17 mph81%29.68 "HgN/A
6:50 pm36 °FClear.18 mph87%29.65 "Hg10 mi
6:20 pm36 °FClear.20 mph87%29.65 "Hg10 mi
5:50 pm36 °FPassing clouds.21 mph87%29.68 "HgN/A
5:20 pm36 °FPassing clouds.22 mph87%29.68 "HgN/A
4:50 pm36 °FPassing clouds.17 mph87%29.71 "HgN/A
4:20 pm36 °FClear.17 mph87%29.71 "Hg10 mi
Weather by CustomWeather, © 2017

See weather overviewHow to use our weather pages